Hourly Weather Barlogi

Today, 2 October, Friday

Time Temperature Precipitation Wind Pressure Humidity
00:00 +12°C° 0 mm 4 mps 744 mmHg 85%
01:00 +12°C° 0 mm 4 mps 744 mmHg 85%
02:00 +12°C° 0 mm 4 mps 744 mmHg 87%
03:00 +11°C° 0 mm 4 mps 744 mmHg 90%
04:00 +11°C° 0 mm 4 mps 743 mmHg 92%
05:00 +11°C° 0 mm 4 mps 744 mmHg 92%
06:00 +11°C° 0 mm 4 mps 744 mmHg 93%
07:00 +11°C° 0 mm 4 mps 744 mmHg 93%
08:00 +12°C° 0 mm 4 mps 744 mmHg 89%
09:00 +13°C° 0 mm 4 mps 744 mmHg 85%
10:00 +14°C° 0 mm 5 mps 744 mmHg 81%
11:00 +14°C° 0 mm 5 mps 744 mmHg 80%
12:00 +14°C° 0 mm 5 mps 744 mmHg 78%
13:00 +14°C° 0 mm 5 mps 744 mmHg 77%
14:00 +14°C° 0.1 mm 5 mps 744 mmHg 77%
15:00 +15°C° 0.1 mm 5 mps 744 mmHg 76%
16:00 +15°C° 0.1 mm 5 mps 744 mmHg 75%
17:00 +14°C° 0 mm 5 mps 744 mmHg 79%
18:00 +13°C° 0 mm 5 mps 744 mmHg 83%
19:00 +12°C° 0 mm 4 mps 744 mmHg 87%
20:00 +12°C° 0 mm 4 mps 744 mmHg 88%
21:00 +12°C° 0 mm 4 mps 744 mmHg 90%
22:00 +12°C° 0 mm 4 mps 744 mmHg 92%
23:00 +12°C° 0 mm 5 mps 743 mmHg 91%

Tomorrow, 3 October, Saturday

Time Temperature Precipitation Wind Pressure Humidity
00:00 +12°C° 0 mm 5 mps 743 mmHg 91%
01:00 +12°C° 0 mm 5 mps 743 mmHg 90%
02:00 +12°C° 0 mm 5 mps 742 mmHg 90%
03:00 +12°C° 0 mm 5 mps 742 mmHg 90%
04:00 +11°C° 0 mm 6 mps 742 mmHg 90%
05:00 +11°C° 0 mm 6 mps 741 mmHg 90%
06:00 +13°C° 0 mm 6 mps 741 mmHg 89%
07:00 +13°C° 0 mm 6 mps 741 mmHg 88%
08:00 +15°C° 0 mm 6 mps 740 mmHg 82%
09:00 +16°C° 0 mm 7 mps 740 mmHg 77%
10:00 +17°C° 0 mm 7 mps 740 mmHg 72%
11:00 +18°C° 0 mm 7 mps 740 mmHg 68%
12:00 +20°C° 0 mm 7 mps 740 mmHg 64%
13:00 +21°C° 0 mm 7 mps 739 mmHg 61%
14:00 +21°C° 0 mm 6 mps 739 mmHg 60%
15:00 +21°C° 0 mm 6 mps 739 mmHg 60%
16:00 +22°C° 0 mm 5 mps 739 mmHg 59%
17:00 +21°C° 0 mm 5 mps 739 mmHg 62%
18:00 +20°C° 0 mm 5 mps 739 mmHg 65%
19:00 +19°C° 0 mm 5 mps 739 mmHg 68%
20:00 +19°C° 0 mm 5 mps 739 mmHg 68%
21:00 +19°C° 0 mm 5 mps 738 mmHg 69%
22:00 +19°C° 0 mm 5 mps 738 mmHg 69%
23:00 +19°C° 0 mm 5 mps 738 mmHg 69%

Day after tomorrow, 4 October, Sunday

Time Temperature Precipitation Wind Pressure Humidity
00:00 +19°C° 0 mm 5 mps 738 mmHg 69%
01:00 +19°C° 0 mm 5 mps 738 mmHg 68%
02:00 +17°C° 0 mm 5 mps 738 mmHg 69%
03:00 +17°C° 0 mm 5 mps 738 mmHg 69%
04:00 +17°C° 0 mm 5 mps 738 mmHg 69%
05:00 +17°C° 0 mm 5 mps 738 mmHg 69%
06:00 +19°C° 0 mm 6 mps 738 mmHg 69%
07:00 +19°C° 0 mm 6 mps 737 mmHg 68%
08:00 +19°C° 0.2 mm 6 mps 737 mmHg 71%
09:00 +19°C° 0.2 mm 6 mps 737 mmHg 73%
10:00 +19°C° 0.2 mm 6 mps 737 mmHg 76%
11:00 +18°C° 0.3 mm 8 mps 738 mmHg 72%
12:00 +18°C° 0.3 mm 10 mps 738 mmHg 69%
13:00 +18°C° 0.3 mm 12 mps 739 mmHg 66%
14:00 +18°C° 0.1 mm 9 mps 740 mmHg 67%
15:00 +17°C° 0.1 mm 7 mps 741 mmHg 68%
16:00 +18°C° 0.1 mm 4 mps 742 mmHg 69%
17:00 +17°C° 0 mm 3 mps 743 mmHg 74%
18:00 +15°C° 0 mm 2 mps 744 mmHg 80%
19:00 +14°C° 0 mm 1 mps 744 mmHg 86%
20:00 +14°C° 0 mm 1 mps 745 mmHg 86%
21:00 +14°C° 0 mm 1 mps 745 mmHg 87%
22:00 +13°C° 0 mm 1 mps 745 mmHg 88%
23:00 +13°C° 0 mm 2 mps 745 mmHg 89%

5 October, Monday

Time Temperature Precipitation Wind Pressure Humidity
00:00 +13°C° 0 mm 2 mps 745 mmHg 89%
01:00 +13°C° 0 mm 2 mps 745 mmHg 89%
02:00 +13°C° 0 mm 2 mps 745 mmHg 89%
03:00 +12°C° 0 mm 3 mps 745 mmHg 88%
04:00 +12°C° 0 mm 3 mps 745 mmHg 87%
05:00 +12°C° 0 mm 3 mps 745 mmHg 85%
06:00 +13°C° 0 mm 3 mps 744 mmHg 82%
07:00 +13°C° 0 mm 3 mps 744 mmHg 80%
08:00 +14°C° 0 mm 4 mps 744 mmHg 71%
09:00 +17°C° 0 mm 4 mps 744 mmHg 63%
10:00 +19°C° 0 mm 4 mps 744 mmHg 54%
11:00 +20°C° 0 mm 4 mps 743 mmHg 53%
12:00 +20°C° 0 mm 3 mps 743 mmHg 53%
13:00 +21°C° 0 mm 3 mps 743 mmHg 52%
14:00 +21°C° 0.1 mm 3 mps 742 mmHg 55%
15:00 +21°C° 0.1 mm 3 mps 742 mmHg 59%
16:00 +20°C° 0.1 mm 3 mps 742 mmHg 63%
17:00 +19°C° 0.1 mm 3 mps 741 mmHg 68%
18:00 +18°C° 0.1 mm 2 mps 741 mmHg 73%
19:00 +16°C° 0.1 mm 2 mps 741 mmHg 78%
20:00 +16°C° 0 mm 2 mps 742 mmHg 80%
21:00 +16°C° 0 mm 2 mps 742 mmHg 81%
22:00 +15°C° 0 mm 2 mps 742 mmHg 82%
23:00 +14°C° 0 mm 3 mps 742 mmHg 84%

6 October, Tuesday

Time Temperature Precipitation Wind Pressure Humidity
00:00 +13°C° 0 mm 3 mps 743 mmHg 85%
01:00 +13°C° 0 mm 3 mps 743 mmHg 87%
02:00 +13°C° 0.1 mm 3 mps 743 mmHg 86%
03:00 +13°C° 0.1 mm 3 mps 744 mmHg 86%
04:00 +12°C° 0.1 mm 4 mps 745 mmHg 86%
05:00 +12°C° 0 mm 4 mps 745 mmHg 85%
06:00 +12°C° 0 mm 4 mps 746 mmHg 84%
07:00 +12°C° 0 mm 4 mps 746 mmHg 84%
08:00 +12°C° 0 mm 4 mps 746 mmHg 77%
09:00 +13°C° 0 mm 4 mps 747 mmHg 71%
10:00 +14°C° 0 mm 4 mps 747 mmHg 65%
11:00 +15°C° 0 mm 4 mps 747 mmHg 62%
12:00 +15°C° 0 mm 4 mps 747 mmHg 60%
13:00 +17°C° 0 mm 4 mps 747 mmHg 57%
14:00 +15°C° 0 mm 4 mps 747 mmHg 57%
15:00 +16°C° 0 mm 3 mps 747 mmHg 58%
16:00 +16°C° 0 mm 2 mps 747 mmHg 58%
17:00 +15°C° 0 mm 2 mps 747 mmHg 61%
18:00 +14°C° 0 mm 2 mps 747 mmHg 65%
19:00 +13°C° 0 mm 1 mps 747 mmHg 68%
20:00 +13°C° 0 mm 1 mps 747 mmHg 69%
21:00 +13°C° 0 mm 1 mps 747 mmHg 70%
22:00 +13°C° 0 mm 1 mps 747 mmHg 71%
23:00 +12°C° 0 mm 1 mps 747 mmHg 74%

7 October, Wednesday

Time Temperature Precipitation Wind Pressure Humidity
00:00 +12°C° 0 mm 1 mps 747 mmHg 76%
01:00 +10°C° 0 mm 2 mps 746 mmHg 79%
02:00 +10°C° 0 mm 2 mps 746 mmHg 81%
03:00 +10°C° 0 mm 2 mps 746 mmHg 83%
04:00 +10°C° 0 mm 2 mps 746 mmHg 86%
05:00 +10°C° 0 mm 2 mps 746 mmHg 86%
06:00 +10°C° 0 mm 3 mps 746 mmHg 86%
07:00 +10°C° 0 mm 3 mps 746 mmHg 86%
08:00 +11°C° 0 mm 3 mps 747 mmHg 79%
09:00 +13°C° 0 mm 4 mps 747 mmHg 72%
10:00 +14°C° 0 mm 4 mps 747 mmHg 66%
11:00 +15°C° 0 mm 5 mps 747 mmHg 63%
12:00 +16°C° 0 mm 5 mps 747 mmHg 60%
13:00 +16°C° 0 mm 5 mps 747 mmHg 57%
14:00 +16°C° 0.1 mm 5 mps 747 mmHg 59%
15:00 +15°C° 0.1 mm 4 mps 748 mmHg 61%
16:00 +15°C° 0.1 mm 4 mps 748 mmHg 63%
17:00 +14°C° 0 mm 4 mps 748 mmHg 66%
18:00 +13°C° 0 mm 3 mps 748 mmHg 70%
19:00 +12°C° 0 mm 3 mps 749 mmHg 74%
20:00 +12°C° 0 mm 3 mps 749 mmHg 76%
21:00 +11°C° 0 mm 3 mps 749 mmHg 78%
22:00 +11°C° 0 mm 3 mps 750 mmHg 80%
23:00 +10°C° 0 mm 3 mps 750 mmHg 81%
Show more